Location: Ebenezer
(18.2167°N, 63.0667°W)
Time: 13:39:27
(UTC+00:00)

SL-4 R/B - Pass Details

Date: 26 January 2020
Orbit: 428 x 666 km, 51.6° (Epoch: 24 February)

Event Time Altitude Azimuth Distance (km) Brightness Sun altitude
Rises 22:32:15 0° 174° (S) 2,986 5.9 -7.4°
Reaches altitude 10° 22:36:34 10° 137° (SE) 2,067 4.7 -8.4°
Maximum altitude 22:37:44 11° 123° (ESE) 2,007 4.5 -8.7°
Drops below altitude 10° 22:38:54 10° 109° (ESE) 2,055 4.4 -8.9°
Enters shadow 22:39:46 - 99° (E) 2,158 4.5 -9.1°
